DW5056 Weather Reports


time (UTC)temp
C
wind
direction
speed
KPH
gust
KPH
rain 1hr
cm
rain 24hr
cm
rain mn
cm
humidity
%
barometer
mb
20260506185358 12 35 3.2 9.7 0.00 0.00 0.00 68 1011.4
20260506184831 12 42 3.2 19.3 0.00 0.00 0.00 69 1011.4
20260506184328 12 54 3.2 19.3 0.00 0.00 0.00 68 1011.3
20260506183822 12 347 1.6 16.1 0.00 0.00 0.00 69 1011.3
20260506183318 12 63 4.8 17.7 0.00 0.00 0.00 69 1011.3
20260506182812 12 79 6.4 17.7 0.00 0.00 0.00 69 1011.2
20260506182328 12 179 4.8 14.5 0.00 0.00 0.00 68 1011.1
20260506181829 12 143 3.2 12.9 0.00 0.00 0.00 68 1011.1
20260506181323 12 108 1.6 14.5 0.00 0.00 0.00 67 1011.0
20260506180818 12 13 3.2 14.5 0.00 0.00 0.00 67 1010.8
20260506180313 12 72 4.8 19.3 0.00 0.00 0.00 66 1010.7
20260506175844 12 330 9.7 20.9 0.00 0.00 0.00 65 1010.7
20260506175316 12 56 3.2 16.1 0.00 0.00 0.00 65 1010.5
20260506174813 12 74 9.7 17.7 0.00 0.00 0.00 62 1010.5
20260506174335 13 27 11.3 19.3 0.00 0.00 0.00 62 1010.5
20260506173821 13 84 4.8 17.7 0.00 0.00 0.00 63 1010.4
20260506173323 13 50 9.7 17.7 0.00 0.00 0.00 62 1010.3
20260506172315 13 39 11.3 17.7 0.00 0.00 0.00 62 1010.2
20260506171818 13 335 11.3 17.7 0.00 0.00 0.00 61 1010.1
20260506171314 13 75 6.4 17.7 0.00 0.00 0.00 61 1010.0
20260506170847 13 59 11.3 17.7 0.00 0.00 0.00 60 1010.0
20260506170328 13 53 4.8 20.9 0.00 0.00 0.00 60 1010.0
20260506165839 13 27 11.3 20.9 0.00 0.00 0.00 59 1010.0
20260506165352 13 34 9.7 19.3 0.00 0.00 0.00 60 1009.9
20260506164827 13 44 6.4 17.7 0.00 0.00 0.00 61 1009.9
20260506164322 13 318 9.7 19.3 0.00 0.00 0.00 61 1009.9
20260506163816 13 348 11.3 19.3 0.00 0.00 0.00 61 1009.9
20260506163338 13 21 8.0 20.9 0.00 0.00 0.00 62 1009.8
20260506162814 13 30 9.7 20.9 0.00 0.00 0.00 61 1009.8
20260506162321 13 33 9.7 19.3 0.00 0.00 0.00 61 1009.8
20260506161823 14 25 3.2 12.9 0.00 0.00 0.00 63 1009.8
20260506161346 14 33 8.0 12.9 0.00 0.00 0.00 63 1009.6
20260506160839 14 45 6.4 14.5 0.00 0.00 0.00 64 1009.7
20260506160312 14 316 6.4 16.1 0.00 0.00 0.00 64 1009.6
20260506155816 14 335 8.0 16.1 0.00 0.00 0.00 63 1009.6
20260506155331 14 27 6.4 14.5 0.00 0.00 0.00 63 1009.6
20260506154833 14 24 6.4 14.5 0.00 0.00 0.00 63 1009.6
20260506154328 15 41 9.7 17.7 0.00 0.00 0.00 62 1009.6
20260506153813 15 111 4.8 16.1 0.00 0.00 0.00 63 1009.6
20260506153316 15 11 4.8 12.9 0.00 0.00 0.00 62 1009.6
20260506152829 15 321 4.8 16.1 0.00 0.00 0.00 61 1009.6
20260506152324 15 341 9.7 19.3 0.00 0.00 0.00 60 1009.6
20260506151829 15 16 11.3 17.7 0.00 0.00 0.00 61 1009.5
20260506151320 15 354 6.4 17.7 0.00 0.00 0.00 63 1009.5
20260506150824 15 61 8.0 17.7 0.00 0.00 0.00 63 1009.5
20260506150319 15 345 6.4 17.7 0.00 0.00 0.00 64 1009.5
20260506145814 14 312 4.8 12.9 0.00 0.00 0.00 64 1009.5
20260506145320 14 268 8.0 12.9 0.00 0.00 0.00 63 1009.6
20260506144823 15 347 4.8 11.3 0.00 0.00 0.00 63 1009.5
20260506144339 15 46 3.2 14.5 0.00 0.00 0.00 62 1009.5
20260506143812 15 47 8.0 14.5 0.00 0.00 0.00 60 1009.5
20260506143335 15 358 8.0 16.1 0.00 0.00 0.00 59 1009.5
20260506142829 15 25 8.0 16.1 0.00 0.00 0.00 59 1009.5
20260506142324 15 1 6.4 16.1 0.00 0.00 0.00 60 1009.5
20260506141817 14 49 8.0 16.1 0.00 0.00 0.00 60 1009.5
20260506141320 14 290 4.8 19.3 0.00 0.00 0.00 60 1009.5
20260506140841 14 33 8.0 19.3 0.00 0.00 0.00 58 1009.5
20260506140334 14 300 9.7 17.7 0.00 0.00 0.00 61 1009.5
20260506135828 14 298 11.3 17.7 0.00 0.00 0.00 63 1009.6
20260506135325 14 78 6.4 17.7 0.00 0.00 0.00 64 1009.5
20260506134817 14 312 8.0 17.7 0.00 0.00 0.00 65 1009.5
20260506134340 14 354 8.0 16.1 0.00 0.00 0.00 66 1009.5
20260506133820 14 319 9.7 16.1 0.00 0.00 0.00 65 1009.5
20260506133312 15 319 3.2 16.1 0.00 0.00 0.00 65 1009.4
20260506132814 15 18 8.0 16.1 0.00 0.00 0.00 63 1009.5
20260506131827 15 79 11.3 24.1 0.00 0.00 0.00 61 1009.4
20260506131330 15 323 12.9 24.1 0.00 0.00 0.00 62 1009.4
20260506130817 15 25 4.8 14.5 0.00 0.00 0.00 63 1009.3
20260506130335 15 40 8.0 16.1 0.00 0.00 0.00 64 1009.3
20260506125848 15 309 6.4 17.7 0.00 0.00 0.00 64 1009.2
20260506125315 15 338 9.7 17.7 0.00 0.00 0.00 63 1009.2
20260506124835 15 283 6.4 17.7 0.00 0.00 0.00 63 1009.2
20260506124348 15 341 9.7 19.3 0.00 0.00 0.00 63 1009.2
20260506123817 15 101 6.4 17.7 0.00 0.00 0.00 64 1009.2
20260506123337 15 338 8.0 14.5 0.00 0.00 0.00 65 1009.2
20260506122859 15 19 4.8 14.5 0.00 0.00 0.00 65 1009.2
20260506122326 14 24 4.8 14.5 0.00 0.00 0.00 66 1009.1
20260506121826 14 305 8.0 16.1 0.00 0.00 0.00 67 1009.1
20260506121320 14 354 8.0 16.1 0.00 0.00 0.00 67 1009.1
20260506120816 14 46 6.4 17.7 0.00 0.00 0.00 69 1009.2
20260506120330 14 11 8.0 17.7 0.00 0.00 0.00 68 1009.1
20260506115836 15 318 9.7 20.9 0.00 0.00 0.00 67 1009.1
20260506115329 15 346 14.5 27.4 0.00 0.00 0.00 66 1009.0
20260506114821 15 85 12.9 27.4 0.00 0.00 0.00 66 1009.0
20260506114323 15 333 9.7 32.2 0.00 0.00 0.00 67 1009.0
20260506113829 15 21 9.7 32.2 0.00 0.00 0.00 67 1009.0
20260506113330 15 300 8.0 24.1 0.00 0.00 0.00 66 1009.0
20260506112826 15 336 11.3 22.5 0.00 0.00 0.00 67 1009.0
20260506112319 15 1 9.7 22.5 0.00 0.00 0.00 67 1008.9
20260506111814 15 11 6.4 22.5 0.00 0.00 0.00 69 1008.9
20260506111336 15 360 11.3 22.5 0.00 0.00 0.00 67 1009.0
20260506110823 15 33 9.7 16.1 0.00 0.00 0.00 69 1009.0
20260506110325 15 30 8.0 16.1 0.00 0.00 0.00 69 1009.1
20260506105826 15 148 6.4 19.3 0.00 0.00 0.00 69 1009.1
20260506105321 14 328 8.0 20.9 0.00 0.00 0.00 70 1009.1
20260506104816 14 305 9.7 22.5 0.00 0.00 0.00 71 1009.2
20260506104337 14 5 9.7 22.5 0.00 0.00 0.00 71 1009.1
20260506103824 14 298 8.0 22.5 0.00 0.00 0.00 72 1009.1
20260506103319 14 338 9.7 19.3 0.00 0.00 0.00 73 1009.2
20260506102819 14 19 9.7 19.3 0.00 0.00 0.00 74 1009.2
20260506102333 14 327 6.4 22.5 0.00 0.00 0.00 76 1009.1
20260506101825 13 38 9.7 22.5 0.00 0.00 0.00 76 1009.1
20260506101327 14 330 11.3 20.9 0.00 0.00 0.00 77 1009.1
20260506100813 13 322 4.8 20.9 0.00 0.00 0.00 78 1009.1
20260506100335 13 82 8.0 17.7 0.00 0.00 0.00 78 1009.0
20260506095818 13 75 9.7 17.7 0.00 0.00 0.00 79 1009.0
20260506095328 13 342 4.8 20.9 0.00 0.00 0.00 80 1009.0
20260506094823 13 267 3.2 20.9 0.00 0.00 0.00 80 1009.0
20260506094321 13 309 12.9 17.7 0.00 0.00 0.00 81 1009.0
20260506093828 13 274 8.0 16.1 0.00 0.00 0.00 82 1009.0
20260506093330 13 336 12.9 22.5 0.00 0.00 0.00 81 1009.0
20260506092821 12 319 9.7 22.5 0.00 0.00 0.00 82 1009.0
20260506092336 12 326 8.0 20.9 0.00 0.00 0.00 83 1009.0
20260506091814 12 103 6.4 17.7 0.00 0.00 0.00 84 1008.9
20260506091351 12 309 8.0 17.7 0.00 0.00 0.00 86 1008.9
20260506090818 12 3 8.0 17.7 0.00 0.00 0.00 90 1008.9
20260506090340 11 333 6.4 16.1 0.00 0.00 0.00 92 1008.9
20260506085852 11 70 6.4 12.9 0.00 0.00 0.00 92 1008.9
20260506085318 11 21 8.0 17.7 0.00 0.00 0.00 92 1008.9
20260506084813 10 324 6.4 17.7 0.00 0.00 0.00 92 1008.9
20260506084315 10 349 6.4 14.5 0.00 0.00 0.00 92 1008.8
20260506083823 10 22 8.0 17.7 0.00 0.00 0.00 92 1008.8
20260506083319 10 5 6.4 17.7 0.00 0.00 0.00 92 1008.8
20260506082840 10 1 8.0 17.7 0.00 0.00 0.00 92 1008.8
20260506082335 10 325 6.4 14.5 0.00 0.00 0.00 92 1008.8
20260506081830 10 346 6.4 16.1 0.00 0.00 0.00 92 1008.8
20260506081332 10 8 8.0 17.7 0.00 0.00 0.00 92 1008.8
20260506080816 10 25 9.7 16.1 0.00 0.00 0.00 92 1008.7
20260506080339 10 341 9.7 16.1 0.00 0.00 0.00 92 1008.7
20260506073352 9 6 6.4 14.5 0.00 0.00 0.00 92 1008.7
20260506072825 9 15 3.2 12.9 0.00 0.00 0.00 92 1008.7
20260506072314 9 296 6.4 12.9 0.00 0.00 0.00 92 1008.6
20260506071835 9 325 8.0 12.9 0.00 0.00 0.00 92 1008.6
20260506071315 9 58 8.0 12.9 0.00 0.00 0.00 92 1008.6
20260506070844 9 51 6.4 14.5 0.00 0.00 0.00 92 1008.6
20260506070337 9 352 4.8 12.9 0.00 0.00 0.00 92 1008.7
20260506062322 -17 0.0 0.0 0.00 0.00 0.00 1008.5
20260506061826 -17 0.0 0.0 0.00 0.00 0.00 1008.5
20260506061317 -17 0.0 0.0 0.00 0.00 0.00 1008.4
20260506060843 -17 0.0 0.0 0.00 0.00 0.00 1008.4
20260506060405 -17 0.0 0.0 0.00 0.00 0.00 1008.4
20260506050820 -17 0.0 0.0 0.00 0.00 0.00 1008.3
20260506050335 -17 0.0 0.0 0.00 0.00 0.00 1008.3
20260506044328 -17 0.0 0.0 0.00 0.00 0.00 1008.2
20260506043822 -17 0.0 0.0 0.00 0.00 0.00 1008.2
20260506043318 -17 0.0 0.0 0.00 0.00 0.00 1008.1
20260506042323 10 330 9.7 24.1 0.00 0.00 0.00 85 1008.1
20260506041819 10 5 6.4 17.7 0.00 0.00 0.00 85 1008.1
20260506041321 10 60 4.8 20.9 0.00 0.00 0.00 85 1008.2
20260506040831 10 193 8.0 20.9 0.00 0.00 0.00 85 1008.2
20260506040346 10 21 8.0 17.7 0.00 0.00 0.00 85 1008.2
20260506035817 10 314 8.0 22.5 0.00 0.00 0.00 85 1008.2
20260506035334 10 311 6.4 17.7 0.00 0.00 0.00 85 1008.2
20260506034855 10 15 9.7 16.1 0.00 0.00 0.00 85 1008.2
20260506034326 10 13 6.4 14.5 0.00 0.00 0.00 85 1008.3
20260506033839 10 341 9.7 14.5 0.00 0.00 0.00 85 1008.3
20260506033332 10 42 6.4 20.9 0.00 0.00 0.00 85 1008.3
20260506032831 10 10 9.7 20.9 0.00 0.00 0.00 85 1008.3
20260506032319 10 63 8.0 20.9 0.00 0.00 0.00 85 1008.3
20260506031822 10 338 9.7 19.3 0.00 0.00 0.00 84 1008.3
20260506031318 10 56 9.7 19.3 0.00 0.00 0.00 84 1008.3
20260506030813 10 333 3.2 20.9 0.00 0.00 0.00 84 1008.4
20260506030329 10 1 11.3 20.9 0.00 0.00 0.00 84 1008.4
20260506025820 10 316 6.4 19.3 0.00 0.00 0.00 84 1008.4
20260506025333 10 5 9.7 17.7 0.00 0.00 0.00 84 1008.4
20260506024829 10 328 8.0 12.9 0.00 0.00 0.00 84 1008.4
20260506024325 10 15 4.8 16.1 0.00 0.00 0.00 84 1008.5
20260506023820 10 328 6.4 12.9 0.00 0.00 0.00 84 1008.5
20260506023314 10 342 6.4 17.7 0.00 0.00 0.00 84 1008.5
20260506022816 10 358 9.7 17.7 0.00 0.00 0.00 84 1008.6
20260506022319 10 69 6.4 19.3 0.00 0.00 0.00 84 1008.6
20260506021817 10 319 8.0 16.1 0.00 0.00 0.00 84 1008.6
20260506021340 10 356 6.4 14.5 0.00 0.00 0.00 84 1008.7
20260506020824 10 347 8.0 14.5 0.00 0.00 0.00 83 1008.6
20260506020319 10 356 9.7 16.1 0.00 0.00 0.00 83 1008.7
20260506015832 10 328 6.4 17.7 0.00 0.00 0.00 83 1008.7
20260506015324 10 321 8.0 17.7 0.00 0.00 0.00 83 1008.7
20260506014820 10 8 8.0 17.7 0.00 0.00 0.00 83 1008.8
20260506014314 10 341 8.0 17.7 0.00 0.00 0.00 83 1008.8
20260506013824 10 355 9.7 16.1 0.00 0.00 0.00 82 1008.8
20260506013326 10 30 8.0 16.1 0.00 0.00 0.00 82 1008.8
20260506012821 10 54 4.8 14.5 0.00 0.00 0.00 82 1008.8
20260506012334 10 352 8.0 14.5 0.00 0.00 0.00 82 1008.8
20260506011828 10 330 6.4 19.3 0.00 0.00 0.00 82 1008.8
20260506011331 10 345 11.3 19.3 0.00 0.00 0.00 82 1008.8
20260506010816 10 344 4.8 16.1 0.00 0.00 0.00 82 1008.8
20260506010338 10 117 9.7 19.3 0.00 0.00 0.00 82 1008.8
20260506005851 10 13 6.4 19.3 0.00 0.00 0.00 82 1008.9
20260506005334 10 321 8.0 17.7 0.00 0.00 0.00 82 1008.9
20260506004814 10 27 8.0 14.5 0.00 0.00 0.00 82 1008.9
20260506004335 10 27 6.4 19.3 0.00 0.00 0.00 82 1009.0
20260506003820 10 356 8.0 19.3 0.00 0.00 0.00 82 1009.0
20260506003316 10 314 4.8 16.1 0.00 0.00 0.00 82 1009.0
20260506002817 10 224 6.4 16.1 0.00 0.00 0.00 82 1009.1
20260506002331 10 333 6.4 20.9 0.00 0.00 0.00 82 1009.1
20260506001826 10 314 11.3 20.9 0.00 0.00 0.00 82 1009.2
20260506001320 10 347 8.0 19.3 0.00 0.00 0.00 82 1009.2
20260506000814 10 159 9.7 20.9 0.00 0.00 0.00 81 1009.2
20260506000337 10 33 9.7 20.9 0.00 0.00 0.00 81 1009.2
20260505235822 10 328 8.0 19.3 0.00 0.00 0.00 82 1009.2
20260505235316 10 341 9.7 20.9 0.00 0.00 0.00 82 1009.2
20260505234859 10 338 4.8 22.5 0.00 0.00 0.00 82 1009.2
20260505234313 10 16 14.5 24.1 0.00 0.00 0.00 82 1009.3
20260505233818 10 25 9.7 24.1 0.00 0.00 0.00 82 1009.3
20260505233321 10 46 6.4 17.7 0.00 0.00 0.00 82 1009.3
20260505232330 10 360 9.7 17.7 0.00 0.00 0.00 81 1009.3
20260505231833 10 48 6.4 17.7 0.00 0.00 0.00 81 1009.4
20260505231329 10 315 8.0 20.9 0.00 0.00 0.00 81 1009.4
20260505230843 11 27 6.4 19.3 0.00 0.00 0.00 81 1009.4
20260505230318 11 330 4.8 16.1 0.00 0.00 0.00 81 1009.4
20260505225812 11 300 6.4 19.3 0.00 0.00 0.00 81 1009.4
20260505225317 11 6 12.9 19.3 0.00 0.00 0.00 81 1009.5
20260505224819 11 49 9.7 19.3 0.00 0.00 0.00 81 1009.5
20260505224314 11 333 9.7 17.7 0.00 0.00 0.00 81 1009.5
20260505223822 11 61 8.0 17.7 0.00 0.00 0.00 81 1009.6
20260505223317 11 6 6.4 16.1 0.00 0.00 0.00 81 1009.6
20260505222818 11 53 6.4 16.1 0.00 0.00 0.00 81 1009.6
20260505222324 11 84 9.7 17.7 0.00 0.00 0.00 81 1009.6
20260505221826 11 13 9.7 17.7 0.00 0.00 0.00 81 1009.7
20260505221320 11 33 6.4 17.7 0.00 0.00 0.00 81 1009.7
20260505220814 11 356 11.3 17.7 0.00 0.00 0.00 81 1009.7
20260505220335 11 333 6.4 16.1 0.00 0.00 0.00 81 1009.7
20260505215818 11 25 8.0 17.7 0.00 0.00 0.00 81 1009.7
20260505215332 11 33 6.4 17.7 0.00 0.00 0.00 81 1009.7
20260505214824 11 40 11.3 20.9 0.00 0.00 0.00 81 1009.7
20260505214328 11 25 8.0 20.9 0.00 0.00 0.00 81 1009.7
20260505213856 11 34 11.3 20.9 0.00 0.00 0.00 81 1009.8
20260505213327 11 76 4.8 20.9 0.00 0.00 0.00 81 1009.7
20260505212849 11 30 9.7 20.9 0.00 0.00 0.00 81 1009.8
20260505212314 11 360 11.3 19.3 0.00 0.00 0.00 80 1009.8
20260505211815 11 275 8.0 22.5 0.00 0.00 0.00 80 1009.7
20260505211329 11 25 9.7 24.1 0.00 0.00 0.00 80 1009.8
20260505210821 11 51 6.4 24.1 0.00 0.00 0.00 80 1009.8
20260505210314 11 99 8.0 19.3 0.00 0.00 0.00 80 1009.7
20260505205824 11 30 8.0 20.9 0.00 0.00 0.00 80 1009.8
20260505205334 11 53 11.3 22.5 0.00 0.00 0.00 79 1009.8
20260505204851 12 84 11.3 22.5 0.00 0.00 0.00 79 1009.8
20260505204324 12 352 11.3 25.7 0.00 0.00 0.00 79 1009.8
20260505203816 12 72 8.0 25.7 0.00 0.00 0.00 79 1009.8
20260505203357 12 42 9.7 24.1 0.00 0.00 0.00 79 1009.7
20260505202826 12 53 8.0 25.7 0.00 0.00 0.00 79 1009.7
20260505202320 12 40 11.3 25.7 0.00 0.00 0.00 79 1009.7
20260505201841 12 35 11.3 29.0 0.00 0.00 0.00 78 1009.7
20260505200820 12 290 11.3 25.7 0.00 0.00 0.00 79 1009.5
20260505200313 12 360 8.0 20.9 0.00 0.00 0.00 80 1009.5
20260505195826 12 8 9.7 20.9 0.00 0.00 0.00 80 1009.5
20260505195314 12 339 3.2 12.9 0.00 0.00 0.00 80 1009.5
20260505194814 12 358 4.8 12.9 0.00 0.00 0.00 80 1009.5
20260505194358 12 309 6.4 12.9 0.00 0.00 0.00 80 1009.5
20260505193824 12 25 8.0 12.9 0.00 0.00 0.00 80 1009.4
20260505193324 12 67 6.4 12.9 0.00 0.00 0.00 80 1009.3
20260505192819 12 27 6.4 16.1 0.00 0.00 0.00 80 1009.3
20260505192332 12 30 4.8 19.3 0.00 0.00 0.00 80 1009.2
20260505191827 13 68 8.0 19.3 0.00 0.00 0.00 79 1009.1
20260505191349 13 6 6.4 16.1 0.00 0.00 0.00 80 1009.1
20260505190841 13 300 9.7 17.7 0.00 0.00 0.00 79 1009.0
20260505190313 13 341 6.4 17.7 0.00 0.00 0.00 80 1009.0
20260505185823 13 40 6.4 16.1 0.00 0.00 0.00 80 1009.0